Location: Mercogliano
(40.9167°N, 14.7333°E)
Time: 07:34:12
(UTC+00:00)

CZ-2C R/B - Pass Details

Date: 17 January 2021
Orbit: 785 x 870 km, 98.2° (Epoch: 08 March)

Event Time Altitude Azimuth Distance (km) Brightness Sun altitude
Rises 04:37:44 0° 141° (SE) 3,266 6.6 -19.5°
Reaches altitude 10° 04:40:12 10° 132° (SE) 2,346 5.9 -19.1°
Maximum altitude 04:44:50 34° 68° (ENE) 1,280 4.1 -18.2°
Drops below altitude 10° 04:49:33 10° 5° (N) 2,393 5.0 -17.3°
Sets 04:52:05 0° 356° (N) 3,341 5.6 -16.9°
